Powrót do katalogu

CZ-3C DEB

LostHEO
NORAD 48548·DEBRIS·🇨🇳 China

Wystrzelony Feb 24, 2012 z Xichang Satellite Launch Center

Loading…

Następne Przeloty (najbliższe 24 godziny)

TLE

NieaktualneSource: Space-Track

Epoka: Aug 14, 2024, 15:57 UTC

1 48548U 12008AT  24227.66472624  .00162071  00000-0  11128+0 0  9993
2 48548  21.2388 309.9235 6551337 224.9504  58.3445  3.19477155101005

Śledź CZ-3C DEB w czasie rzeczywistym z AllMySat

Download on the App Store